Location: Chmeli�t?
(49.8978°N, 15.0526°E)
Time: 20:46:48
(UTC+00:00)

STARLINK-1343 - Pass Details

Date: 07 June 2020
Orbit: 378 x 381 km, 53.0° (Epoch: 04 July)

Event Time Altitude Azimuth Distance (km) Brightness Sun altitude
Rises 01:29:02 0° 291° (WNW) 2,257 6.6 -10.0°
Reaches altitude 10° 01:31:05 10° 291° (WNW) 1,402 5.6 -9.9°
Maximum altitude 01:34:13 87° 206° (SSW) 387 2.8 -9.6°
Drops below altitude 10° 01:37:20 10° 114° (ESE) 1,397 5.9 -9.3°
Sets 01:39:23 0° 114° (ESE) 2,247 6.9 -9.1°
